Content
SEND FEEDBACK

Daily
Averages
Monthly
Summary
Sweden

ARBOGA, SWEDEN


Home > Europe > Sweden
Elevation: 33 feet     Latitude: 59 23N     Longitude: 015 55E

WEATHER
 
SELECT A DAY
Number of Records: 242,094;   Date Range: 7/1/96 - 12/17/14
 
SHARE

PRINT THIS DATA

[ ← Previous Day ]
WEATHER ALMANAC - FEBRUARY 13, 2013
[ Next Day → ]
[ °C ]   °F
Weather ElementAverageHighLow
Temperature27 °F28.4 °F (1:20 am)24.8 °F (6:20 am)
Dewpoint25.6 °F26.6 °F (12:50 am)23 °F (10:50 am)
Humidity94.7 %100 % (12:50 am)86 % (3:50 am)
Barometer30.33 in30.42 in (4:50 pm)30.15 in (12:50 am)
Wind Speed1.9 mph4.6 mph (3:50 am)
Weather ElementAverage
Visibility4.3 mi
Wind DirectionESE (114.4 °)

Weather ElementTotal
Precipitation---
Heating Degree Days38.4 (Base 65)
Averaged from 45 records on February 13, 2013
WEATHER CONDITIONS BREAKOUT
WIND DIRECTION BREAKOUT
WEATHER BY HOUR - FEBRUARY 13, 2013
[ °C ]   °F
Local TimeTemperatureDewpointHumidityBarometerVisibilityWind DirectionWind SpeedGust SpeedPrecipitationEventsConditions
12:50 AM26.6 °F26.6 °F100 %30.15 in1.4 miNorth (10°)3.5 mphSnowLight Snow
1:20 AM28.4 °F26.6 °F93 %30.18 inCalmSnowLight Snow
1:50 AM26.6 °F26.6 °F100 %30.18 inCalmSnowLight Snow
2:20 AM26.6 °F26.6 °F100 %30.18 in4.3 miCalmSnowSnow Grains
2:50 AM26.6 °F26.6 °F100 %30.18 in6.2 miVariable1.2 mphSnowSnow Grains
3:20 AM26.6 °F26.6 °F100 %30.21 in6.2 miVariable2.3 mphSnowLight Snow
3:50 AM28.4 °F24.8 °F86 %30.21 in6.2 miSSE (160°)4.6 mphOvercast
4:20 AM28.4 °F24.8 °F86 %30.21 in6.2 miSSE (160°)2.3 mphOvercast
4:50 AM26.6 °F24.8 °F93 %30.21 in6.2 miSE (140°)2.3 mphSnowLight Snow
5:20 AM26.6 °F24.8 °F93 %30.24 in6.2 miEast (80°)2.3 mphSnowLight Snow
5:50 AM26.6 °F24.8 °F93 %30.24 in6.2 miENE (70°)2.3 mphOvercast
6:20 AM24.8 °F24.8 °F100 %30.24 in6.2 miESE (110°)2.3 mphOvercast
6:50 AM24.8 °F24.8 °F100 %30.27 in6.2 miSE (130°)2.3 mphMostly Cloudy
7:20 AM26.6 °F24.8 °F93 %30.27 in6.2 miVariable2.3 mphMostly Cloudy
7:50 AM26.6 °F24.8 °F93 %30.30 in6.2 miSouth (180°)3.5 mphMostly Cloudy
8:20 AM26.6 °F24.8 °F93 %30.30 in6.2 miSouth (170°)3.5 mphMostly Cloudy
8:50 AM26.6 °F24.8 °F93 %30.33 in6.2 miSSE (150°)3.5 mphMostly Cloudy
9:20 AM26.6 °F24.8 °F93 %30.33 in6.2 miESE (120°)3.5 mphMostly Cloudy
9:50 AM26.6 °F24.8 °F93 %30.33 in6.2 miESE (120°)3.5 mphMostly Cloudy
10:20 AM26.6 °F24.8 °F93 %30.36 in6.2 miSSE (150°)4.6 mphMostly Cloudy
10:50 AM26.6 °F23.0 °F86 %30.36 in6.2 miSouth (190°)4.6 mphMostly Cloudy
11:20 AM26.6 °F24.8 °F93 %30.36 in6.2 miSSW (210°)2.3 mphMostly Cloudy
11:50 AM28.4 °F24.8 °F86 %30.36 in6.2 miCalmMostly Cloudy
12:20 PM26.6 °F24.8 °F93 %30.39 in6.2 miVariable1.2 mphMostly Cloudy
12:50 PM26.6 °F24.8 °F93 %30.39 in6.2 miESE (110°)2.3 mphMostly Cloudy
1:20 PM26.6 °F24.8 °F93 %30.39 in6.2 miESE (120°)1.2 mphMostly Cloudy
1:50 PM26.6 °F24.8 °F93 %30.39 in6.2 miEast (100°)1.2 mphMostly Cloudy
2:20 PM26.6 °F24.8 °F93 %30.39 in6.2 miCalmSnowLight Snow
2:50 PM28.4 °F24.8 °F86 %30.39 in6.2 miCalmOvercast
3:20 PM28.4 °F24.8 °F86 %30.39 in2.2 miENE (60°)2.3 mphOvercast
3:50 PM28.4 °F26.6 °F93 %30.39 inVariable1.2 mphOvercast
4:20 PM26.6 °F26.6 °F100 %30.39 in1.0 miNorth (360°)2.3 mphSnowSnow Grains
4:50 PM26.6 °F26.6 °F100 %30.42 in1.4 miNorth (360°)1.2 mphSnowSnow Grains
5:20 PM26.6 °F26.6 °F100 %30.42 in1.2 miNorth (360°)2.3 mphSnowLight Snow
5:50 PM26.6 °F26.6 °F100 %30.42 in1.5 miNorth (360°)1.2 mphSnowLight Snow
6:20 PM26.6 °F26.6 °F100 %30.42 in1.1 miNorth (360°)2.3 mphSnowLight Snow
6:50 PM26.6 °F26.6 °F100 %30.42 in0.8 miCalmSnowLight Snow
7:50 PM26.6 °F26.6 °F100 %30.42 in1.4 miCalmLight Ice Pellets
8:20 PM26.6 °F26.6 °F100 %30.42 in1.9 miCalmSnowLight Snow
8:50 PM26.6 °F26.6 °F100 %30.39 in1.6 miCalmSnowLight Snow
9:20 PM28.4 °F26.6 °F93 %30.39 in1.1 miENE (70°)1.2 mphSnowLight Snow
9:50 PM28.4 °F26.6 °F93 %30.39 in1.2 miVariable1.2 mphSnowLight Snow
10:20 PM28.4 °F26.6 °F93 %30.39 in1.2 miNorth (360°)3.5 mphSnowLight Snow
11:20 PM26.6 °F26.6 °F100 %30.39 in1.6 miNorth (350°)3.5 mphMostly Cloudy
11:50 PM28.4 °F26.6 °F93 %30.39 in1.7 miNNE (30°)1.2 mphOvercast
Hourly data recorded from ESOW, located miles away from Arboga, Sweden







STORIES FROM OUR PARTNERS